[[{"header":{"parameterUnit":"m.s-1","parameterCategory":1,"la1":30.2991,"la2":30.254,"lo1":-89.0895,"lo2":-89.0444,"dy":0.0017,"dx":0.0017,"nx":28,"ny":28,"refTime":"2025-11-22T03:00:00:Z","depth":0,"parameterNumber":2,"parameterNumberName":"U-component_of_WINDS"},"data":[0,0,0,0,0,0,0,0,0,0,0,0,0,0,0,0,0,0,0,0,0,0,0,0,0,0,0,0,0,0,0,0,0,0,0,0,0,0,0,0,0,0,0,0,0,0,0,0,0,0,0,0,0,0,0,0,0,0,-0.7029,-0.7029,0,-0.7009,-0.7008,-0.7008,-0.6998,-0.6998,-0.6998,-0.6998,-0.6978,-0.6977,-0.6977,0,0,0,0,0,0,0,0,0,0,0,0,0,-0.7059,-0.7059,-0.7029,-0.7029,-0.7028,-0.7009,-0.7008,-0.7008,-0.6998,-0.6998,-0.6998,-0.6998,-0.6978,-0.6977,-0.6977,0,0,0,0,0,0,0,0,0,0,0,0,0,-0.7043,-0.7058,-0.7029,-0.7021,-0.702,-0.7009,-0.7008,-0.7008,-0.6998,-0.6998,-0.6998,-0.6998,-0.6978,-0.6978,-0.6977,-0.6973,0,0,-0.6974,-0.6974,0,0,0,0,0,0,0,0,-0.7044,-0.7042,-0.7022,-0.7021,-0.702,-0.7006,-0.7012,-0.6996,-0.6998,-0.7006,-0.6998,-0.6998,-0.6987,-0.6986,-0.6982,-0.6972,-0.6971,-0.6974,-0.6974,-0.6974,-0.6973,0,0,0,0,0,0,0,-0.7045,-0.7043,-0.7021,-0.7022,-0.7021,-0.7018,-0.7016,-0.7009,-0.6997,-0.7005,-0.7005,-0.7002,-0.6987,-0.6983,-0.6981,-0.6971,-0.6974,-0.6974,-0.6973,-0.6973,-0.6955,-0.6955,0,0,0,0,0,0,-0.7048,-0.7044,-0.7022,-0.702,-0.7032,-0.7018,-0.7015,-0.701,-0.6997,-0.6995,-0.7002,-0.7002,-0.6984,-0.6982,-0.6981,-0.6974,-0.6974,-0.6973,-0.6972,-0.6955,-0.6955,-0.6955,0,0,0,0,0,0,-0.7048,-0.7046,-0.7022,-0.7032,-0.7029,-0.7017,-0.7012,-0.701,-0.7006,-0.6995,-0.6993,-0.7,-0.6984,-0.6982,-0.6974,-0.6974,-0.6973,-0.6972,-0.6955,-0.6955,-0.6955,-0.6962,0,0,0,0,0,0,-0.7049,-0.7046,-0.7044,-0.7032,-0.7028,-0.7016,-0.7012,-0.701,-0.7005,-0.7004,-0.6992,-0.6991,-0.6984,-0.6976,-0.6974,-0.6972,-0.6971,-0.6955,-0.6955,-0.6955,-0.6962,-0.6962,-0.6963,0,0,0,0,0,-0.705,-0.7047,-0.7044,-0.7042,-0.7026,-0.7016,-0.7014,-0.7006,-0.7005,-0.7003,-0.6995,-0.6991,-0.6974,-0.6975,-0.6973,-0.6971,-0.6955,-0.6955,-0.6955,-0.6962,-0.6962,-0.6963,0,0,0,0,0,0,-0.7061,-0.7046,-0.7042,-0.7035,-0.7027,-0.7015,-0.7012,-0.7007,-0.7,-0.6999,-0.699,-0.6987,-0.6981,-0.6975,-0.6977,-0.6966,-0.6964,-0.6964,-0.697,-0.697,-0.6971,-0.6972,-0.6971,0,0,0,0,0,-0.7062,-0.7055,-0.7043,-0.7038,-0.7034,-0.7024,-0.7019,-0.7014,-0.7005,-0.7002,-0.6994,-0.6986,-0.6979,-0.6974,-0.6967,-0.6961,-0.6958,-0.6959,-0.6959,-0.696,-0.6959,-0.6955,-0.6955,-0.6955,-0.6955,-0.6955,0,0,-0.7065,-0.7056,-0.7052,-0.704,-0.7033,-0.7026,-0.7021,-0.7014,-0.7009,-0.7001,-0.6993,-0.6987,-0.6978,-0.6971,-0.6967,-0.6966,-0.6959,-0.696,-0.696,-0.6959,-0.6955,-0.6955,-0.6955,-0.6955,-0.6955,-0.6955,0,0,-0.7066,-0.7059,-0.7054,-0.7047,-0.7036,-0.7029,-0.7028,-0.7016,-0.7012,-0.7004,-0.6997,-0.6991,-0.6979,-0.6972,-0.6967,-0.6966,-0.6961,-0.6964,-0.6966,-0.6962,-0.6962,-0.6962,-0.6961,-0.6961,-0.6963,-0.6964,-0.6964,0,-0.7072,-0.7061,-0.7052,-0.7045,-0.704,-0.7031,-0.7026,-0.7019,-0.7007,-0.7004,-0.7002,-0.6986,-0.698,-0.6971,-0.697,-0.6967,-0.6965,-0.6965,-0.6962,-0.6962,-0.6962,-0.6961,-0.6961,-0.6964,-0.6964,-0.6964,-0.6964,0,-0.7067,-0.706,-0.7057,-0.7044,-0.7039,-0.7033,-0.7023,-0.7018,-0.7013,-0.7006,-0.6998,-0.6989,-0.698,-0.6977,-0.6973,-0.6968,-0.6967,-0.6964,-0.6962,-0.6963,-0.6961,-0.6961,-0.6964,-0.6964,-0.6964,-0.6964,0,0,-0.7075,-0.7057,-0.7056,-0.705,-0.7037,-0.7032,-0.7025,-0.7016,-0.7011,-0.7003,-0.6997,-0.6987,-0.6984,-0.6979,-0.6973,-0.6969,-0.6968,-0.6967,-0.6967,-0.6967,-0.6962,-0.6963,-0.6963,-0.6965,-0.6965,-0.6965,-0.6962,0,-0.7075,-0.7062,-0.7053,-0.7044,-0.7037,-0.7029,-0.7023,-0.7015,-0.7008,-0.7001,-0.6994,-0.6987,-0.6984,-0.698,-0.6977,-0.6969,-0.6967,-0.6969,-0.696,-0.6959,-0.6962,-0.6963,-0.6965,-0.6963,-0.6962,-0.6962,-0.6962,0,-0.7072,-0.7064,-0.7053,-0.7041,-0.7037,-0.7032,-0.7022,-0.7016,-0.7006,-0.7002,-0.6995,-0.6989,-0.6982,-0.6981,-0.6971,-0.6972,-0.6968,-0.6964,-0.6963,-0.6962,-0.696,-0.6961,-0.6962,-0.6961,-0.6961,-0.6961,-0.6961,0,-0.7078,-0.7064,-0.7056,-0.7051,-0.7036,-0.7033,-0.7027,-0.7017,-0.7011,-0.7003,-0.6999,-0.699,-0.6985,-0.6979,-0.697,-0.697,-0.6961,-0.6959,-0.6957,-0.6957,-0.6955,-0.6955,-0.6955,-0.6953,-0.6953,-0.6953,-0.6953,0,-0.7078,-0.7073,-0.7058,-0.7053,-0.7046,-0.7037,-0.703,-0.7023,-0.7014,-0.7008,-0.7001,-0.6995,-0.6985,-0.6978,-0.6971,-0.6964,-0.6962,-0.6958,-0.6956,-0.6958,-0.6959,-0.6955,-0.6955,-0.6953,-0.6953,-0.6953,-0.6953,0,-0.7084,-0.7074,-0.7065,-0.7051,-0.7048,-0.7043,-0.7032,-0.7026,-0.7019,-0.7011,-0.7009,-0.6998,-0.6989,-0.698,-0.6969,-0.6965,-0.6957,-0.6955,-0.696,-0.6959,-0.6958,-0.6958,-0.6955,-0.6954,-0.6953,-0.6953,-0.6953,0,-0.7084,-0.7079,-0.7065,-0.706,-0.7054,-0.7046,-0.704,-0.703,-0.7024,-0.7012,-0.7009,-0.6999,-0.6991,-0.6978,-0.6969,-0.696,-0.6958,-0.6957,-0.6956,-0.6958,-0.6957,-0.6957,-0.6957,-0.6958,-0.6958,-0.6958,-0.6958,0,-0.7086,-0.7081,-0.7073,-0.7062,-0.7055,-0.7047,-0.7038,-0.7035,-0.7023,-0.7017,-0.7008,-0.7001,-0.6989,-0.698,-0.697,-0.6964,-0.6959,-0.6958,-0.6957,-0.6959,-0.6962,-0.696,-0.6961,-0.6958,-0.6958,-0.6958,-0.6958,-0.6958,-0.7089,-0.7084,-0.7072,-0.7063,-0.7055,-0.7047,-0.7042,-0.7033,-0.7025,-0.7014,-0.7009,-0.7,-0.699,-0.6976,-0.697,-0.6962,-0.6961,-0.696,-0.6959,-0.6959,-0.6959,-0.6963,-0.6961,-0.6961,-0.6961,-0.6961,-0.6961,0,-0.709,-0.7082,-0.7073,-0.7061,-0.7053,-0.7049,-0.7039,-0.7033,-0.7025,-0.7016,-0.7008,-0.6997,-0.6988,-0.6978,-0.6968,-0.6964,-0.6962,-0.6962,-0.6962,-0.6961,-0.6961,-0.6963,-0.6964,-0.6964,-0.6964,-0.6964,-0.6964,-0.6964,-0.7089,-0.708,-0.7074,-0.7061,-0.7053,-0.7043,-0.7038,-0.7031,-0.7023,-0.7011,-0.7003,-0.6997,-0.6988,-0.6977,-0.6969,-0.6966,-0.6963,-0.6964,-0.6961,-0.6961,-0.6961,-0.6961,-0.6962,-0.6963,-0.6963,-0.6961,-0.6961,-0.6961]},{"header":{"parameterUnit":"m.s-1","parameterCategory":1,"la1":30.2991,"la2":30.254,"lo1":-89.0895,"lo2":-89.0444,"dy":0.0017,"dx":0.0017,"nx":28,"ny":28,"refTime":"2025-11-22T03:00:00:Z","depth":0,"parameterNumber":3,"parameterNumberName":"V-component_of_WINDS"},"data":[0,0,0,0,0,0,0,0,0,0,0,0,0,0,0,0,0,0,0,0,0,0,0,0,0,0,0,0,0,0,0,0,0,0,0,0,0,0,0,0,0,0,0,0,0,0,0,0,0,0,0,0,0,0,0,0,0,0,4.7893,4.7892,0,4.7828,4.7828,4.7827,4.7794,4.7794,4.7794,4.7794,4.7722,4.7721,4.7719,0,0,0,0,0,0,0,0,0,0,0,0,0,4.7984,4.7983,4.7893,4.7892,4.7891,4.7828,4.7828,4.7827,4.7794,4.7794,4.7794,4.7794,4.7723,4.7721,4.7719,0,0,0,0,0,0,0,0,0,0,0,0,0,4.7935,4.7982,4.7893,4.7868,4.7865,4.7829,4.7828,4.7826,4.7794,4.7794,4.7794,4.7794,4.7724,4.7721,4.7718,4.7701,0,0,4.771,4.7708,0,0,0,0,0,0,0,0,4.7937,4.7931,4.7872,4.7869,4.7866,4.7819,4.7833,4.7784,4.7794,4.7821,4.7794,4.7794,4.7754,4.7749,4.7737,4.7698,4.7695,4.7709,4.7708,4.7706,4.7706,0,0,0,0,0,0,0,4.7941,4.7934,4.7867,4.7871,4.7868,4.7858,4.7851,4.7824,4.7788,4.7818,4.7816,4.7809,4.7753,4.7739,4.7735,4.7694,4.7709,4.7707,4.7705,4.7704,4.7639,4.7639,0,0,0,0,0,0,4.7949,4.7937,4.7869,4.7865,4.7903,4.7857,4.7849,4.7834,4.7788,4.7781,4.7809,4.7808,4.7744,4.7738,4.7732,4.771,4.7706,4.7704,4.7702,4.7639,4.7639,4.7639,0,0,0,0,0,0,4.7951,4.7943,4.7872,4.79,4.7891,4.7855,4.7839,4.7833,4.782,4.7781,4.7774,4.7802,4.7744,4.7736,4.771,4.7707,4.7702,4.77,4.7639,4.7639,4.7639,4.7666,0,0,0,0,0,0,4.7954,4.7944,4.7938,4.7901,4.7889,4.7852,4.7839,4.7832,4.7816,4.7813,4.7773,4.7767,4.7743,4.7714,4.7707,4.7703,4.7698,4.7639,4.7639,4.7639,4.7665,4.7667,4.7668,0,0,0,0,0,4.7957,4.7947,4.7938,4.793,4.7881,4.7852,4.7845,4.782,4.7816,4.7809,4.7784,4.7768,4.7709,4.7712,4.7703,4.7699,4.7639,4.7639,4.7639,4.7664,4.7666,4.7668,0,0,0,0,0,0,4.7982,4.7941,4.7931,4.7908,4.7884,4.7846,4.7837,4.7823,4.7798,4.7796,4.7765,4.7756,4.7733,4.7713,4.7717,4.7681,4.7672,4.7671,4.7695,4.7696,4.7698,4.7703,4.7695,0,0,0,0,0,4.7986,4.7967,4.7931,4.7914,4.7903,4.7872,4.7858,4.7842,4.7814,4.7803,4.7777,4.775,4.7725,4.7709,4.7684,4.7662,4.7653,4.7655,4.7657,4.7658,4.7657,4.7645,4.7646,4.7639,4.7639,4.7639,0,0,4.7991,4.7967,4.7956,4.7919,4.7898,4.7879,4.7864,4.7843,4.7828,4.7799,4.7774,4.7754,4.7721,4.7698,4.7686,4.768,4.7657,4.7658,4.766,4.7657,4.7645,4.7646,4.7646,4.7639,4.7639,4.7639,0,0,4.7992,4.7972,4.7956,4.7937,4.7906,4.7886,4.7883,4.7847,4.7834,4.7808,4.7787,4.7768,4.7726,4.7704,4.7688,4.7683,4.7668,4.7676,4.7684,4.7673,4.7674,4.7674,4.7673,4.7673,4.7675,4.7675,4.7675,0,4.8003,4.7974,4.7949,4.7931,4.7915,4.7892,4.7876,4.7857,4.7819,4.7809,4.7804,4.7753,4.7729,4.77,4.77,4.7687,4.7682,4.768,4.7676,4.7676,4.7676,4.7675,4.7674,4.7676,4.7676,4.7676,4.7676,0,4.7989,4.7969,4.796,4.7927,4.791,4.7893,4.7866,4.7851,4.7837,4.7817,4.7792,4.7763,4.7733,4.7725,4.7709,4.7694,4.7692,4.7682,4.7673,4.7678,4.7677,4.7676,4.7678,4.7678,4.7677,4.7677,0,0,4.8002,4.7958,4.7955,4.7941,4.7907,4.789,4.7872,4.7845,4.7834,4.7809,4.7793,4.7759,4.775,4.7732,4.7713,4.7704,4.7703,4.7694,4.7693,4.7698,4.7687,4.7696,4.7696,4.7693,4.7693,4.7693,4.769,0,4.7998,4.7966,4.7945,4.7921,4.7903,4.7882,4.7866,4.7843,4.7824,4.7805,4.7784,4.7761,4.7751,4.774,4.7729,4.7706,4.7701,4.7705,4.7677,4.7677,4.7687,4.7695,4.7703,4.7702,4.7689,4.7689,4.7689,0,4.7989,4.7968,4.7944,4.7914,4.7905,4.7891,4.7866,4.7848,4.7822,4.7809,4.779,4.7772,4.7751,4.7745,4.7716,4.772,4.7707,4.7694,4.7694,4.769,4.7683,4.7692,4.7701,4.7701,4.7688,4.7688,4.7688,0,4.8003,4.7968,4.7949,4.7937,4.7901,4.7893,4.7877,4.7851,4.7837,4.7813,4.7804,4.7778,4.7764,4.7744,4.772,4.7717,4.7694,4.7685,4.7683,4.7684,4.7679,4.7679,4.7686,4.767,4.767,4.767,4.767,0,4.8001,4.7987,4.7955,4.7943,4.7927,4.7903,4.7887,4.7869,4.7847,4.7831,4.7809,4.7795,4.7763,4.7744,4.7725,4.7705,4.7698,4.7687,4.7682,4.7689,4.7691,4.768,4.768,4.767,4.767,4.767,4.767,0,4.8013,4.7991,4.7969,4.7938,4.793,4.792,4.7893,4.788,4.7862,4.7842,4.7836,4.7806,4.7783,4.7757,4.7725,4.7712,4.7694,4.7686,4.7703,4.77,4.77,4.7701,4.7701,4.77,4.7684,4.7684,4.7684,0,4.8013,4.8003,4.7972,4.7961,4.7946,4.7928,4.7915,4.789,4.7877,4.7847,4.7839,4.7815,4.7794,4.7759,4.7734,4.7709,4.7701,4.7703,4.7697,4.7706,4.7702,4.7704,4.7703,4.7705,4.7705,4.7705,4.7705,0,4.8017,4.8007,4.7989,4.7968,4.7953,4.7934,4.7914,4.7906,4.7878,4.7864,4.7841,4.7826,4.7795,4.7772,4.7745,4.7727,4.7712,4.7708,4.7706,4.7713,4.7724,4.7719,4.7708,4.7708,4.7707,4.7707,4.7707,4.7707,4.8023,4.8014,4.7991,4.7972,4.7955,4.7938,4.7926,4.7907,4.7889,4.7863,4.785,4.7828,4.7803,4.7766,4.7749,4.7732,4.7726,4.7723,4.7723,4.7723,4.7725,4.7727,4.7726,4.7726,4.7726,4.7726,4.7726,0,4.8027,4.8012,4.7995,4.797,4.7955,4.7944,4.7922,4.791,4.7892,4.7871,4.7853,4.7828,4.7806,4.778,4.7756,4.7747,4.774,4.7742,4.7742,4.7739,4.7731,4.7735,4.7749,4.7749,4.7749,4.7749,4.7749,4.7749,4.8027,4.801,4.7998,4.7973,4.7958,4.7938,4.7927,4.7911,4.7895,4.7869,4.7852,4.7836,4.7813,4.7788,4.7767,4.776,4.7752,4.7757,4.7748,4.7741,4.7739,4.7737,4.7741,4.7755,4.7755,4.7757,4.7757,4.7757]}]]